TimeCDT,TemperatureF,Dew PointF,Humidity,Sea Level PressureIn,VisibilityMPH,Wind Direction,Wind SpeedMPH,Gust SpeedMPH,PrecipitationIn,Events,Conditions,WindDirDegrees,DateUTC
12:57 AM,64.0,54.0,70,29.80,10.0,SSE,8.1,-,N/A,,Overcast,160,2013-04-08 05:57:00
1:57 AM,64.0,53.1,67,29.78,10.0,SSE,9.2,-,N/A,,Overcast,150,2013-04-08 06:57:00
2:57 AM,63.0,53.1,70,29.75,10.0,SE,6.9,-,N/A,,Mostly Cloudy,140,2013-04-08 07:57:00
3:57 AM,63.0,54.0,72,29.74,10.0,South,6.9,-,0.00,Rain,Light Rain,170,2013-04-08 08:57:00
4:31 AM,62.6,55.4,77,29.77,10.0,SSE,11.5,-,0.00,Rain-Thunderstorm,Light Rain,160,2013-04-08 09:31:00
4:57 AM,61.0,55.9,83,29.75,10.0,South,15.0,-,0.00,Rain-Thunderstorm,Light Thunderstorms and Rain,190,2013-04-08 09:57:00
5:03 AM,60.8,55.4,82,29.78,10.0,South,8.1,-,0.00,Rain,Light Rain,180,2013-04-08 10:03:00
5:06 AM,60.8,55.4,82,29.78,10.0,South,11.5,16.1,0.00,Rain-Thunderstorm,Light Rain,190,2013-04-08 10:06:00
5:57 AM,61.0,57.0,87,29.75,10.0,SSW,11.5,-,0.04,Rain-Thunderstorm,Thunderstorms and Rain,200,2013-04-08 10:57:00
6:33 AM,60.8,57.2,88,29.79,10.0,South,11.5,-,0.05,Rain,Light Rain,190,2013-04-08 11:33:00
6:57 AM,61.0,57.9,90,29.76,10.0,South,10.4,-,0.07,Rain,Light Rain,180,2013-04-08 11:57:00
7:57 AM,62.1,57.9,86,29.78,10.0,South,11.5,-,0.00,,Overcast,170,2013-04-08 12:57:00
8:57 AM,63.0,57.0,81,29.78,10.0,South,20.7,26.5,N/A,,Overcast,170,2013-04-08 13:57:00
9:57 AM,64.0,57.0,78,29.78,10.0,South,20.7,27.6,N/A,,Overcast,170,2013-04-08 14:57:00
10:57 AM,64.9,57.9,78,29.81,10.0,South,13.8,-,N/A,,Overcast,170,2013-04-08 15:57:00
11:39 AM,66.2,57.2,73,29.83,10.0,SSE,15.0,-,N/A,,Overcast,160,2013-04-08 16:39:00
11:57 AM,68.0,57.9,70,29.79,10.0,SSE,20.7,-,N/A,,Overcast,150,2013-04-08 16:57:00
12:57 PM,70.0,59.0,68,29.78,10.0,South,13.8,26.5,N/A,,Overcast,170,2013-04-08 17:57:00
1:57 PM,68.0,57.9,70,29.76,10.0,SSE,17.3,-,N/A,,Overcast,150,2013-04-08 18:57:00
2:57 PM,68.0,57.9,70,29.75,10.0,SSE,16.1,-,N/A,,Overcast,150,2013-04-08 19:57:00
3:57 PM,66.0,57.9,75,29.74,10.0,SE,10.4,-,N/A,,Overcast,130,2013-04-08 20:57:00
4:57 PM,66.9,57.9,73,29.74,10.0,ESE,9.2,-,N/A,,Overcast,120,2013-04-08 21:57:00
5:27 PM,66.2,59.0,78,29.76,10.0,East,8.1,-,N/A,,Overcast,100,2013-04-08 22:27:00
5:57 PM,66.9,59.0,76,29.73,10.0,East,6.9,-,N/A,,Overcast,100,2013-04-08 22:57:00
6:57 PM,70.0,57.9,65,29.74,10.0,SSE,9.2,-,N/A,,Overcast,150,2013-04-08 23:57:00
7:57 PM,69.1,57.9,68,29.75,10.0,SE,9.2,-,N/A,,Overcast,140,2013-04-09 00:57:00
8:57 PM,68.0,57.9,70,29.75,10.0,SE,8.1,-,N/A,,Partly Cloudy,130,2013-04-09 01:57:00
9:57 PM,66.0,57.0,73,29.75,10.0,SE,5.8,-,N/A,,Partly Cloudy,130,2013-04-09 02:57:00
10:57 PM,64.9,57.0,75,29.74,10.0,ESE,8.1,-,N/A,,Scattered Clouds,110,2013-04-09 03:57:00
11:57 PM,64.9,55.9,73,29.74,10.0,ESE,5.8,-,N/A,,Mostly Cloudy,110,2013-04-09 04:57:00